{"data":{"norad_id":47895,"epoch":"2026-09-20T02:28:34.607712Z","epoch_age_seconds":63423,"freshness":"FRESH","line1":"1 47895U 21021AM  26263.10317833 -.00001908  00000+0 -49736-4 0  9996","line2":"2 47895  53.1597  83.3907 0001211  91.9094 268.2046 15.31695885306011","mean_motion":15.31695885,"eccentricity":0.0001211,"inclination_deg":53.1597,"raan_deg":83.3907,"arg_perigee_deg":91.9094,"mean_anomaly_deg":268.2046,"bstar":-4.9736e-5,"rev_number":30601,"period_min":94.013440533595,"perigee_km":469.92286136437,"apogee_km":471.58166234359,"semimajor_km":6848.889261854,"source":"CELESTRAK","updated_at":"2026-09-20T09:00:38.756443Z"}}